This is the latest recevied weather packets stored in our database for station/object WW5JC. If no packets are shown the sender has not sent any weather packets the latest 10 day(s).
| Time | Temp. | Humidity | Pressure | Rain* | Wind** | Luminosity | Snow |
|---|---|---|---|---|---|---|---|
| 1788360781 | 29.44° C | 75% | 1018.7 hPa | 0 mm | - | 337 W/m² | - |
| 1788360476 | 28.89° C | 77% | 1018.8 hPa | 0 mm | - | 323 W/m² | - |
| 1788360171 | 29.44° C | 75% | 1019 hPa | 0 mm | - | 310 W/m² | - |
| 1788359867 | 29.44° C | 75% | 1018.6 hPa | 0 mm | - | 44 W/m² | - |
| 1788359561 | 28.89° C | 76% | 1018.6 hPa | 0 mm | - | 260 W/m² | - |
| 1788359256 | 28.89° C | 77% | 1018.7 hPa | 0 mm | - | 268 W/m² | - |
| 1788358952 | 28.89° C | 76% | 1018.9 hPa | 0 mm | - | 68 W/m² | - |
| 1788358647 | 28.33° C | 78% | 1018.6 hPa | 0 mm | - | 42 W/m² | - |
| 1788358343 | 28.33° C | 79% | 1018.9 hPa | 0 mm | - | 38 W/m² | - |
| 1788358032 | 27.78° C | 79% | 1018.7 hPa | 0 mm | - | 185 W/m² | - |
| 1788357727 | 27.78° C | 80% | 1018.5 hPa | 0 mm | - | 54 W/m² | - |
| 1788357426 | 27.78° C | 80% | 1018.7 hPa | 0 mm | - | 182 W/m² | - |
| 1788357122 | 27.78° C | 80% | 1018.7 hPa | 0 mm | - | 170 W/m² | - |
| 1788356816 | 27.22° C | 81% | 1018.5 hPa | 0 mm | - | 34 W/m² | - |
| 1788356516 | 27.22° C | 82% | 1018.5 hPa | 0 mm | - | 143 W/m² | - |
| 1788356211 | 26.67° C | 83% | 1018.7 hPa | 0 mm | - | 132 W/m² | - |
| 1788355911 | 26.67° C | 84% | 1018.5 hPa | 0 mm | - | 122 W/m² | - |
| 1788355606 | 26.11° C | 84% | 1018.7 hPa | 0 mm | - | 107 W/m² | - |
| 1788355301 | 26.11° C | 84% | 1018.7 hPa | 0 mm | - | 97 W/m² | - |
| 1788354997 | 26.11° C | 85% | 1018.5 hPa | 0 mm | - | 87 W/m² | - |
| 1788354692 | 25.56° C | 86% | 1018.5 hPa | 0 mm | - | 77 W/m² | - |
| 1788354388 | 25.56° C | 86% | 1018.3 hPa | 0 mm | - | 68 W/m² | - |
| 1788354084 | 25° C | 86% | 1018.6 hPa | 0 mm | - | 59 W/m² | - |
| 1788353779 | 25° C | 87% | 1018.4 hPa | 0 mm | - | 51 W/m² | - |
| 1788353474 | 25° C | 88% | 1018.4 hPa | 0 mm | - | 45 W/m² | - |
* Rain latest hour (hover to see other rain measurements)
** Current wind speed in m/s (hover to see current wind gust speed)